1335052831795,20.8506
1335052891795,20.8482
1335052951795,20.8342
1335053011795,20.9317
1335053071795,20.8604
1335053131795,20.8589
1335053191795,20.8331
1335053251795,20.9101
1335053311795,20.8877
1335053371795,20.9186
1335053431795,20.9044
1335053491795,20.8537
1335053551795,20.9309
1335053611795,20.9744
1335053671795,21.0097
1335053731795,21.1212
1335053791795,21.1278
1335053851795,21.2645
1335053911795,21.1954
1335053971795,21.1145
1335054031795,21.1072
1335054091795,21.0531
1335054151795,21.0069
1335054211795,21.0036
1335054271795,20.9231
1335054331795,20.9024
1335054391795,20.9807
1335054451795,21.0207
1335054511795,20.9812
1335054571795,20.9711
1335054631795,20.9690
1335054691795,20.9428
1335054751795,20.8486
1335054811795,20.8967
1335054871795,20.8887
1335054931795,20.9041
1335054991795,20.9021
1335055051795,20.8594
1335055111795,20.8477
1335055171795,20.8163
1335055231795,20.8657
1335055291795,20.8279
1335055351795,20.8262
1335055411795,20.8209
1335055471795,20.8493
1335055531795,20.8288
1335055591795,20.8552
1335055651795,20.8378
1335055711795,20.8432
1335055771795,20.6677
1335055831795,20.7609
1335055891795,20.8083
1335055951795,20.7687
1335056011795,20.8287
1335056071795,20.8426
1335056131795,20.8275
1335056191795,20.8106
1335056251795,20.8376
1335056311795,20.8386
1335056371795,20.8621
1335056431806,20.8262
1335056491806,20.8696
1335056551806,20.7695
1335056611806,20.8149
1335056671806,20.8526
1335056731806,20.8010
1335056791806,20.7336
1335056851806,20.7111
1335056911806,20.7295
1335056971806,20.7510
1335057031806,20.7966
1335057091806,20.8109
1335057151806,20.8327
1335057211806,20.8472
1335057271806,20.8464
1335057331806,20.7907
1335057391806,20.8321
1335057451806,20.8393
1335057511806,20.8052
1335057571806,20.7571
1335057631806,20.8495
1335057691806,20.8242
1335057751806,20.8393
1335057811806,20.8780
1335057871806,20.8888
1335057931806,20.9215
1335057991806,20.8915
1335058051806,20.9516
1335058111806,20.9572
1335058171806,20.9737
1335058231806,20.9997
1335058291806,20.9746
1335058351806,20.9900
1335058411806,20.9999
1335058471806,21.0447
1335058531806,21.0390
1335058591806,21.0177
1335058651806,21.0056
1335058711806,20.9876
1335058771806,20.9448
1335058831806,20.9899
1335058891806,20.9982
1335058951806,21.0545
1335059011806,20.8773
1335059071806,21.0392
1335059131806,20.9593
1335059191806,20.9975
1335059251806,20.9684
1335059311806,20.9452
1335059371806,20.9472
1335059431806,20.9529
1335059491806,20.8669
1335059551806,20.8671
1335059611806,20.8005
1335059671806,20.7770
1335059731806,20.8552
1335059791806,20.8387
1335059851806,20.8115
1335059911806,20.8558
1335059971806,20.8262
1335060031818,20.8588
1335060091818,20.8013
1335060151818,20.8042
1335060211818,20.8098
1335060271818,20.8312
1335060331818,20.7951
1335060391818,20.7805
1335060451818,20.8979
1335060511818,20.8806
1335060571818,20.8457
1335060631818,20.8224
1335060691818,20.8987
1335060751818,20.8761
1335060811818,20.9173
1335060871818,20.9047
1335060931818,20.8494
1335060991818,20.8503
1335061051818,20.8738
1335061111818,20.9505
1335061171818,20.8553
1335061231818,20.8405
1335061291818,20.8117
1335061351818,20.8141
1335061411818,20.8353
1335061471818,20.8840
1335061531818,20.8174
1335061591818,20.8767
1335061651818,20.9162
1335061711818,20.8674
1335061771818,20.7978
1335061831818,20.8654
1335061891818,20.8516
1335061951818,20.8600
1335062011818,20.8605
1335062071818,20.8651
1335062131818,20.8186
1335062191818,20.8712
1335062251818,20.8614
1335062311818,20.8173
1335062371818,20.9178
1335062431818,20.8305
1335062491818,20.8207
1335062551818,20.7805
1335062611818,20.8216
1335062671818,20.8666
1335062731818,20.8246
1335062791818,20.8710
1335062851818,20.8064
1335062911818,20.8723
1335062971818,20.8742
1335063031818,20.7949
1335063091818,20.8739
1335063151818,20.8740
1335063211818,20.7873
1335063271818,20.8308
1335063331818,20.8171
1335063391818,20.7921
1335063451818,20.7691
1335063511818,20.8225
1335063571818,20.8654
1335063631829,20.8279
1335063691829,20.8282
1335063751829,20.8359
1335063811829,20.8702
1335063871829,20.9359
1335063931829,20.8927
1335063991829,20.9157
1335064051829,20.9488
1335064111829,20.9664
1335064171829,20.9494
1335064231829,21.0066
1335064291829,20.9434
1335064351829,20.9409
1335064411829,21.0057
1335064471829,20.9729
1335064531829,20.9502
1335064591829,20.9271
1335064651829,20.9474
1335064711829,20.9594
1335064771829,20.9350
1335064831829,20.9774
1335064891829,20.9679
1335064951829,21.0320
1335065011829,21.0941
1335065071829,21.2053
1335065131829,21.2338
1335065191829,21.1783
1335065251829,21.1021
1335065311829,21.1558
1335065371829,21.0129
1335065431829,21.0527
1335065491829,21.0910
1335065551829,21.0964
1335065611829,20.9544
1335065671829,20.9779
1335065731829,20.9398
1335065791829,21.0044
1335065851829,21.0150
1335065911829,20.9955
1335065971829,20.9496
1335066031829,21.0468
1335066091829,20.9689
1335066151829,20.9953
1335066211829,20.9539
1335066271829,20.9594
1335066331829,20.9847
1335066391829,20.9742
1335066451829,20.9018
1335066511829,21.0314
1335066571829,21.0011
1335066631829,20.8836
1335066691829,20.9216
1335066751829,20.9866
1335066811829,20.9359
1335066871829,20.9121
1335066931829,20.8582
1335066991829,20.8727
1335067051829,20.8057
1335067111829,20.8587
1335067171829,20.9419
1335067231840,20.9649
1335067291840,21.0076
1335067351840,20.9967
1335067411840,20.9710
1335067471840,20.9440
1335067531840,20.9301
1335067591840,20.9780
1335067651840,20.9850
1335067711840,20.9481
1335067771840,20.9032
1335067831840,20.9140
1335067891840,20.9253
1335067951840,20.9611
1335068011840,20.9490
1335068071840,20.8352
1335068131840,20.8790
1335068191840,20.8476
1335068251840,20.8598
1335068311840,20.8754
1335068371840,20.8475
1335068431840,20.8826
1335068491840,20.8226
1335068551840,20.8130
1335068611840,20.8545
1335068671840,20.8657
1335068731840,20.8576
1335068791840,20.8431
1335068851840,20.7725
1335068911840,20.8134
1335068971840,20.8162
1335069031840,20.8529
1335069091840,20.9030
1335069151840,20.8276
1335069211840,20.8831
1335069271840,20.9343
1335069331840,20.8727
1335069391840,20.9016
1335069451840,20.8741
1335069511840,20.8685
1335069571840,20.8552
1335069631840,20.8339
1335069691840,20.8246
1335069751840,20.8006
1335069811840,20.8440
1335069871840,20.8920
1335069931840,20.9003
1335069991840,20.7926
1335070051840,20.8758
1335070111840,20.8303
1335070171840,20.8820
1335070231840,20.8868
1335070291840,20.8863
1335070351840,20.8922
1335070411840,20.7794
1335070471840,20.8771
1335070531840,20.8153
1335070591840,20.8335
1335070651840,20.8138
1335070711840,20.7443
1335070771840,20.8700
1335070831851,20.9087
1335070891851,20.8455
1335070951851,20.8192
1335071011851,20.8199
1335071071851,20.7927
1335071131851,20.8048
1335071191851,20.8515
1335071251851,20.7976
1335071311851,20.7458
1335071371851,20.7734
1335071431851,20.8282
1335071491851,20.7898
1335071551851,20.8419
1335071611851,20.8271
1335071671851,20.7788
1335071731851,20.8360
1335071791851,20.7993
1335071851851,20.8459
1335071911851,20.9011
1335071971851,20.9155
1335072031851,20.9635
1335072091851,20.9519
1335072151851,20.9055
1335072211851,20.9016
1335072271851,20.9047
1335072331851,20.9901
1335072391851,20.8538
1335072451851,20.9013
1335072511851,20.7858
1335072571851,20.8969
1335072631851,20.9286
1335072691851,20.9032
1335072751851,21.0634
1335072811851,21.0510
1335072871851,21.0271
1335072931851,20.8977
1335072991851,20.9048
1335073051851,20.8619
1335073111851,20.9663
1335073171851,20.8746
1335073231851,20.8774
1335073291851,20.9039
1335073351851,20.9156
1335073411851,20.8440
1335073471851,20.8956
1335073531851,20.8419
1335073591851,20.8546
1335073651851,20.8525
1335073711851,20.8930
1335073771851,20.7563
1335073831851,20.8293
1335073891851,20.8122
1335073951851,20.8152
1335074011851,20.8063
1335074071851,20.8366
1335074131851,20.8765
1335074191851,20.8231
1335074251851,20.8571
1335074311851,20.8876
1335074371851,20.8850
1335074431862,20.9014
1335074491862,20.8829
1335074551862,20.8438
1335074611862,20.8487
1335074671862,20.8323
1335074731862,20.8164
1335074791862,20.8940
1335074851862,20.7833
1335074911862,20.8510
1335074971862,20.7813
1335075031862,20.7608
1335075091862,20.7495
1335075151862,20.8016
1335075211862,20.7609
1335075271862,20.7974
1335075331862,20.7887
1335075391862,20.6862
1335075451862,20.7390
1335075511862,20.7652
1335075571862,20.7596
1335075631862,20.7602
1335075691862,20.7749
1335075751862,20.7682
1335075811862,20.7959
1335075871862,20.7896
1335075931862,20.7757
1335075991862,20.8076
1335076051862,20.8319
1335076111862,20.8107
1335076171862,20.8299
1335076231862,20.7863
1335076291862,20.8384
1335076351862,20.8167
1335076411862,20.8093
1335076471862,20.8123
1335076531862,20.8005
1335076591862,20.7915
1335076651862,20.8240
1335076711862,20.8592
1335076771862,20.8268
1335076831862,20.8200
1335076891862,20.8255
1335076951862,20.7926
1335077011862,20.7874
1335077071862,20.8070
1335077131862,20.7881
1335077191862,20.8101
1335077251862,20.8164
1335077311862,20.8008
1335077371862,20.8351
1335077431862,20.8154
1335077491862,20.8282
1335077551862,20.8435
1335077611862,20.7922
1335077671862,20.7796
1335077731862,20.8160
1335077791862,20.8013
1335077851862,20.7687
1335077911862,20.7921
1335077971862,20.8030
1335078031873,20.7585
1335078091873,20.7996
1335078151873,20.7507
1335078211873,20.7887
1335078271873,20.7961
1335078331873,20.8245
1335078391873,20.7871
1335078451873,21.0581
1335078511873,21.2139
1335078571873,21.0223
1335078631873,21.0236
1335078691873,20.9350
1335078751873,20.9207
1335078811873,20.8681
1335078871873,20.8299
1335078931873,20.8769
1335078991873,20.8233
1335079051873,20.8304
1335079111873,20.8530
1335079171873,20.8952
1335079231873,20.8893
1335079291873,20.8597
1335079351873,20.8567
1335079411873,20.8748
1335079471873,20.8957
1335079531873,20.8250
1335079591873,20.8621
1335079651873,20.8997
1335079711873,20.9117
1335079771873,20.8840
1335079831873,20.8334
1335079891873,20.9017
1335079951873,20.8662
1335080011873,20.8048
1335080071873,20.8690
1335080131873,20.9424
1335080191873,20.9228
1335080251873,20.9242
1335080311873,20.8847
1335080371873,20.8885
1335080431873,20.8980
1335080491873,20.8957
1335080551873,20.8385
1335080611873,20.8353
1335080671873,20.8725
1335080731873,20.8077
1335080791873,20.8951
1335080851873,20.8519
1335080911873,20.8870
1335080971873,21.0162
1335081031873,20.9149
1335081091873,20.9323
1335081151873,20.9134
1335081211873,20.8231
1335081271873,20.9247
1335081331873,20.8754
1335081391873,20.8586
1335081451873,20.8711
1335081511873,20.8361
1335081571873,20.8049
1335081631884,20.7781
1335081691884,20.7833
1335081751884,20.7789
1335081811884,20.8262
1335081871884,20.8060
1335081931884,20.8724
1335081991884,20.8620
1335082051884,20.9803
1335082111884,20.9806
1335082171884,21.0519
1335082231884,21.0439
1335082291884,20.9528
1335082351884,21.0575
1335082411884,21.0148
1335082471884,21.0479
1335082531884,21.0343
1335082591884,20.9938
1335082651884,21.0618
1335082711884,21.0276
1335082771884,21.0561
1335082831884,21.0940
1335082891884,21.0960
1335082951884,21.0811
1335083011884,21.1559
1335083071884,21.0342
1335083131884,21.0230
1335083191884,20.9852
1335083251884,21.0254
1335083311884,21.0399
1335083371884,21.0186
1335083431884,21.0021
1335083491884,20.9964
1335083551884,20.9458
1335083611884,21.0283
1335083671884,21.0517
1335083731884,21.0691
1335083791884,21.0408
1335083851884,21.0312
1335083911884,21.0243
1335083971884,21.0297
1335084031884,21.0214
1335084091884,21.0185
1335084151884,20.9472
1335084211884,21.0328
1335084271884,21.0178
1335084331884,20.9573
1335084391884,20.9529
1335084451884,20.9813
1335084511884,20.9832
1335084571884,20.9113
1335084631884,20.9230
1335084691884,20.9707
1335084751884,20.8934
1335084811884,20.8818
1335084871884,20.8903
1335084931884,20.8858
1335084991884,20.8678
1335085051884,20.8818
1335085111884,20.8172
1335085171884,20.8030
1335085231895,20.7161
1335085291895,20.8358
1335085351895,20.7655
1335085411895,20.8339
1335085471895,20.8230
1335085531895,20.9184
1335085591895,20.8373
1335085651895,20.8345
1335085711895,20.8115
1335085771895,20.7986
1335085831895,20.7760
1335085891895,20.7857
1335085951895,20.8098
1335086011895,20.7899
1335086071895,20.7977
1335086131895,20.8145
1335086191895,20.8537
1335086251895,20.8361
1335086311895,20.8025
1335086371895,20.7905
1335086431895,20.7491
1335086491895,20.7890
1335086551895,20.7544
1335086611895,20.7735
1335086671895,20.8431
1335086731895,20.8335
1335086791895,20.8902
1335086851895,20.9244
1335086911895,20.8282
1335086971895,20.8507
1335087031895,20.8809
1335087091895,20.7960
1335087151895,20.8210
1335087211895,20.7980
1335087271895,20.7178
1335087331895,20.7858
1335087391895,20.7705
1335087451895,20.7298
1335087511895,20.7528
1335087571895,20.7709
1335087631895,20.6866
1335087691895,20.6817
1335087751895,20.7163
1335087811895,20.7213
1335087871895,20.7259
1335087931895,20.7543
1335087991895,20.7869
1335088051895,20.7707
1335088111895,20.7707
1335088171895,20.8096
1335088231895,20.7918
1335088291895,20.8081
1335088351895,20.8397
1335088411895,20.7288
1335088471895,20.7572
1335088531895,20.7826
1335088591895,20.7585
1335088651895,20.7797
1335088711895,20.7645
1335088771895,20.7856
1335088831906,20.7136
1335088891906,20.7947
1335088951906,20.7178
1335089011906,20.7336
1335089071906,20.7158
1335089131906,20.7260
1335089191906,20.6814
1335089251906,20.7010
1335089311906,20.6274
1335089371906,20.6910
1335089431906,20.6896
1335089491906,20.6830
1335089551906,20.6722
1335089611906,20.7219
1335089671906,20.7397
1335089731906,20.7550
1335089791906,20.6999
1335089851906,20.7473
1335089911906,20.7938
1335089971906,20.7515
1335090031906,20.7774
1335090091906,20.6769
1335090151906,20.7301
1335090211906,20.7089
1335090271906,20.7071
1335090331906,20.7285
1335090391906,20.7110
1335090451906,20.7726
1335090511906,20.7339
1335090571906,20.7031
1335090631906,20.7251
1335090691906,20.7865
1335090751906,20.7557
1335090811906,20.8330
1335090871906,20.7364
1335090931906,20.6803
1335090991906,20.7225
1335091051906,20.7826
1335091111906,20.7156
1335091171906,20.6866
1335091231906,20.7679
1335091291906,20.7107
1335091351906,20.7508
1335091411906,21.0175
1335091471906,20.7232
1335091531906,20.7999
1335091591906,20.7774
1335091651906,20.8144
1335091711906,20.7413
1335091771906,20.7253
1335091831906,20.7775
1335091891906,20.9601
1335091951906,20.9574
1335092011906,20.8659
1335092071906,20.7670
1335092131906,20.7917
1335092191906,20.8071
1335092251906,20.7597
1335092311906,20.7433
1335092371906,20.7195
1335092431916,20.6834
1335092491916,20.6823
1335092551916,20.7482
1335092611916,20.6884
1335092671916,20.6613
1335092731916,20.7029
1335092791916,20.7306
1335092851916,20.7119
1335092911916,20.6577
1335092971916,20.7150
1335093031916,20.7637
1335093091916,20.6858
1335093151916,20.6850
1335093211916,20.6448
1335093271916,20.6419
1335093331916,20.7239
1335093391916,20.6914
1335093451916,20.7240
1335093511916,20.7721
1335093571916,20.7156
1335093631916,20.6987
1335093691916,20.6921
1335093751916,20.7383
1335093811916,20.7188
1335093871916,20.7484
1335093931916,20.7470
1335093991916,20.7342
1335094051916,20.7467
1335094111916,20.7759
1335094171916,20.7221
1335094231916,20.7090
1335094291916,20.6855
1335094351916,20.7661
1335094411916,20.7324
1335094471916,20.7124
1335094531916,20.7479
1335094591916,20.7190
1335094651916,20.6988
1335094711916,20.7216
1335094771916,20.6561
1335094831916,20.6791
1335094891916,20.6144
1335094951916,20.9061
1335095011916,20.7599
1335095071916,20.7408
1335095131916,20.7518
1335095191916,20.7235
1335095251916,20.7044
1335095311916,20.7830
1335095371916,20.6808
1335095431916,20.7340
1335095491916,20.6540
1335095551916,20.7403
1335095611916,20.6085
1335095671916,20.7381
1335095731916,20.7090
1335095791916,20.6910
1335095851916,20.7427
1335095911916,20.7602
1335095971916,20.8659
1335096031927,20.7607
1335096091927,20.7608
1335096151927,20.7100
1335096211927,20.6760
1335096271927,20.6344
1335096331927,20.6894
1335096391927,20.7139
1335096451927,20.6980
1335096511927,20.7199
1335096571927,20.7174
1335096631927,20.6824
1335096691927,20.7123
1335096751927,20.6519
1335096811927,20.7269
1335096871927,20.7337
1335096931927,20.7487
1335096991927,20.7456
1335097051927,20.7120
1335097111927,20.7768
1335097171927,20.7497
1335097231927,20.7878
1335097291927,20.7331
1335097351927,20.7134
1335097411927,20.7682
1335097471927,20.7836
1335097531927,20.7751
1335097591927,20.7868
1335097651927,20.7915
1335097711927,20.7287
1335097771927,20.7414
1335097831927,20.7296
1335097891927,20.7190
1335097951927,20.7312
1335098011927,20.7139
1335098071927,20.7172
1335098131927,20.7060
1335098191927,20.7374
1335098251927,20.7707
1335098311927,20.7257
1335098371927,20.6919
1335098431927,20.6784
1335098491927,20.7491
1335098551927,20.7282
1335098611927,20.7372
1335098671927,20.6856
1335098731927,20.6261
1335098791927,20.6658
1335098851927,20.6761
1335098911927,20.7037
1335098971927,20.6597
1335099031927,20.6960
1335099091927,20.6610
1335099151927,20.7431
1335099211927,20.7221
1335099271927,20.6737
1335099331927,20.6678
1335099391927,20.7201
1335099451927,20.7090
1335099511927,20.7309
1335099571927,20.7474
1335099631938,20.6977
1335099691938,20.7219
1335099751938,20.7530
1335099811938,20.6647
1335099871938,20.6909
1335099931938,20.6917
1335099991938,20.7353
1335100051938,20.7609
1335100111938,20.7340
1335100171938,20.7444
1335100231938,20.6883
1335100291938,20.6607
1335100351938,20.7124
1335100411938,20.6479
1335100471938,20.6593
1335100531938,20.6752
1335100591938,20.6674
1335100651938,20.6671
1335100711938,20.6599
1335100771938,20.6839
1335100831938,20.6707
1335100891938,20.6840
1335100951938,20.5512
1335101011938,20.7398
1335102151938,20.6441
1335102211938,20.2243
1335102271938,20.8357
1335102331938,20.6977
1335102391938,20.8294
1335102451938,20.7408
1335102511938,20.7223
1335102571938,20.7948
1335102631938,20.7719
1335102691938,20.8107
1335102751938,20.7222
1335102811938,20.7389
1335102871938,20.8359
1335102931938,20.8385
1335102991938,20.9048
1335103051938,20.7642
1335103111938,20.8040
1335103171938,20.7943
1335103231948,20.8975
1335103291948,20.9251
1335103351948,20.9344
1335103411948,20.9354
1335103471948,20.9311
1335103531948,20.9513
1335103591948,20.8969
1335103651948,20.9254
1335103711948,20.8117
1335103771948,20.8333
1335103831948,20.8587
1335103891948,20.8872
1335103951948,20.8477
1335104011948,20.8018
1335104071948,20.8041
1335104131948,20.7835
1335104191948,20.8194
1335104251948,20.7749
1335104311948,20.8130
1335104371948,20.7326
1335104431948,20.8039
1335104491948,20.8001
1335104551948,20.7737
1335104611948,20.7733
1335104671948,20.7449
1335104731948,20.7009
1335104791948,20.8025
1335104851948,20.8336
1335104911948,20.8801
1335104971948,20.8779
1335105031948,20.8993
1335105091948,20.8517
1335105151948,20.7864
1335105211948,20.7863
1335105271948,20.7890
1335105331948,20.7763
1335105391948,20.8153
1335105451948,20.8368
1335105511948,20.7652
1335105571948,20.7903
1335105631948,20.8092
1335105691948,20.8355
1335105751948,20.7358
1335105811948,20.8044
1335105871948,20.7548
1335105931948,20.7896
1335105991948,20.8256
1335106051948,20.8231
1335106111948,20.8889
1335106171948,20.9062
1335106231948,20.8338
1335106291948,20.8040
1335106351948,20.7953
1335106411948,20.8512
1335106471948,20.8155
1335106531948,20.8479
1335106591948,20.8268
1335106651948,20.8966
1335106711948,20.7999
1335106771948,20.8422
1335106831959,20.8498
1335106891959,20.8769
1335106951959,20.8150
1335107011959,20.8221
1335107071959,20.8409
1335107131959,20.8326
1335107191959,20.7935
1335107251959,20.8028
1335107311959,20.8222
1335107371959,20.8213
1335107431959,20.7372
1335107491959,20.8526
1335107551959,20.8242
1335107611959,20.7707
1335107671959,20.7386
1335107731959,20.8168
1335107791959,20.8142
1335107851959,20.7660
1335107911959,20.7610
1335107971959,20.8164
1335108031959,20.8082
1335108091959,20.6961
1335108151959,20.7533
1335108211959,20.7749
1335108271959,20.7027
1335108331959,20.7896
1335108391959,20.7137
1335108451959,20.6884
1335108511959,20.7362
1335108571959,20.6677
1335108631959,20.6768
1335108691959,20.7418
1335108751959,20.6936
1335108811959,20.8044
1335108871959,20.7002
1335108931959,20.7043
1335108991959,20.7332
1335109051959,20.6662
1335109111959,20.6356
1335109171959,20.6565
1335109231959,20.7050
1335109291959,20.7036
1335109351959,20.7100
1335109411959,20.6845
1335109471959,20.6930
1335109531959,20.6965
1335109591959,20.6470
1335109651959,20.7095
1335109711959,20.6684
1335109771959,20.6722
1335109831959,20.7285
1335109891959,20.6491
1335109951959,20.6490
1335110011959,20.7049
1335110071959,20.6814
1335110131959,20.7119
1335110191959,20.7622
1335110251959,20.7209
1335110311959,20.6892
1335110371959,20.7136
1335110431970,20.6840
1335110491970,20.6983
1335110551970,20.7172
1335110611970,20.7193
1335110671970,20.7110
1335110731970,20.7088
1335110791970,20.7604
1335110851970,20.8366
1335110911970,20.7051
1335110971970,20.7168
1335111031970,20.7248
1335111091970,20.6909
1335111151970,20.7817
1335111211970,20.7687
1335111271970,20.7180
1335111331970,20.6636
1335111391970,20.7853
1335111451970,20.7418
1335111511970,20.7202
1335111571970,20.7267
1335111631970,20.6446
1335111691970,20.7713
1335111751970,20.6875
1335111811970,20.7906
1335111871970,20.7801
1335111931970,20.6996
1335111991970,20.7719
1335112051970,20.7416
1335112111970,20.7448
1335112171970,20.7020
1335112231970,20.6987
1335112291970,20.7638
1335112351970,20.8281
1335112411970,20.7743
1335112471970,20.7044
1335112531970,20.7512
1335112591970,20.8265
1335112651970,20.8661
1335112711970,20.8217
1335112771970,20.8478
1335112831970,20.7542
1335112891970,20.7354
1335112951970,20.7767
1335113011970,20.7893
1335113071970,20.7646
1335113131970,20.8049
1335113191970,20.7750
1335113251970,20.7905
1335113311970,20.8130
1335113371970,20.7694
1335113431970,20.6943
1335113491970,20.7974
1335113551970,20.7435
1335113611970,20.7696
1335113671970,20.7755
1335113731970,20.7393
1335113791970,20.7748
1335113851970,20.7518
1335113911970,20.7429
1335113971970,20.6854
1335114031980,20.7258
1335114091980,20.7256
1335114151980,20.7280
1335114211980,20.7521
1335114271980,20.7942
1335114331980,20.7793
1335114391980,20.7489
1335114451980,20.7993
1335114511980,20.7279
1335114571980,20.7777
1335114631980,20.7584
1335114691980,20.7858
1335114751980,20.8041
1335114811980,20.7775
1335114871980,20.7706
1335114931980,20.7914
1335114991980,20.7768
1335115051980,20.7743
1335115111980,20.7063
1335115171980,20.6987
1335115231980,20.6903
1335115291980,20.6643
1335115351980,20.7351
1335115411980,20.7155
1335115471980,20.7397
1335115531980,20.6745
1335115591980,20.6793
1335115651980,20.6930
1335115711980,20.6905
1335115771980,20.7603
1335115831980,20.7963
1335115891980,20.7761
1335115951980,20.6951
1335116011980,20.7175
1335116071980,20.7252
1335116131980,20.7334
1335116191980,20.7020
1335116251980,20.6806
1335116311980,20.6560
1335116371980,20.6779
1335116431980,20.6896
1335116491980,20.6672
1335116551980,20.6769
1335116611980,20.6781
1335116671980,20.7077
1335116731980,20.7466
1335116791980,20.7136
1335116851980,20.7136
1335116911980,20.7702
1335116971980,20.7495
1335117031980,20.8132
1335117091980,20.8784
1335117151980,21.0071
1335117211980,21.1479
1335117271980,21.2335
1335117331980,21.1345
1335117391980,21.0545
1335117451980,20.8906
1335117511980,20.9152
1335117571980,20.8339
1335117631991,20.8440
1335117691991,20.8510
1335117751991,20.8588
1335117811991,20.8776
1335117871991,20.8990
1335117931991,20.8633
1335117991991,20.9071
1335118051991,20.8803
1335118111991,20.7924
1335118171991,20.8902
1335118231991,20.8551
1335118291991,20.8267
1335118351991,20.8517
1335118411991,20.8124
1335118471991,20.7203
1335118531991,20.7613
1335118591991,20.7181
1335118651991,20.7552
1335118711991,20.6592
1335118771991,20.7538
1335118831991,20.8002
1335118891991,20.7099
1335118951991,20.7308
1335119011991,20.6639
1335119071991,20.7799
1335119131991,20.7324
1335119191991,20.7700
1335119251991,20.7446